Regional Weather Roundup
Issued by NWS Goodland, KS

Home | Current Version | Previous Version | Graphics & Text | Print | Product List | Glossary On
Versions: 1 2 3 4 5 6 7 8 9 10 11 12 13 14 15 16 17 18 19 20 21 22 23 24 25 26 27 28 29 30 31 32 33 34 35 36 37 38 39 40 41 42 43 44 45 46 47 48 49 50
000
ASUS43 KGLD 020708
RWRGLD

GOODLAND FORECAST AREA HOURLY WEATHER ROUNDUP
NATIONAL WEATHER SERVICE GOODLAND KS
1200 AM MST MON MAR 02 2015

...OFFICIAL OBSERVATIONS...

CITY           SKY/WX    TMP DP  RH WIND       PRES   REMARKS
GOODLAND KS    CLOUDY    29  20  69 S8        30.32F
HILL CITY KS   CLOUDY    30  21  69 SW3       30.42S
IMPERIAL NEB     N/A     25  16  68 SE5       30.31F
MCCOOK NEB     CLOUDY    32  16  51 S6        30.37S
AKRON CO       CLOUDY    27  18  69 S12       30.23F WCI  17
BURLINGTON CO  CLOUDY    28  21  75 SE8       30.28F
LIMON CO       CLOUDY    23  20  88 S10       30.20F WCI  12
$$

...UNOFFICIAL OBSERVATIONS...

CITY           SKY/WX    TMP DP  RH WIND       PRES   REMARKS
COLBY KS       CLOUDY    30  27  86 S6        30.36S
LENORA KS        N/A     29  32 100 CALM        N/A
NORTON KS      CLOUDY    30  18  59 SW3       30.38S
YUMA CO          N/A     28  18  66 S6          N/A
$$



USA.gov is the U.S. government's official web portal to all federal, state and local government web resources and services.